Change the Weather History Date:

Thursday, January 12, 2012

  Actual Average Record
Temperature  
Mean Temperature 73 °F 73 °F  
Max Temperature 79 °F 80 °F 86 °F (1988)
Min Temperature 66 °F 66 °F 57 °F (1978)
Degree Days  
Heating Degree Days 0 0  
Month to date heating degree days 0 0  
Since 1 July heating degree days 0 0  
Cooling Degree Days 8 8  
Month to date cooling degree days 115 98  
Year to date cooling degree days 115 98  
Growing Degree Days 22 (Base 50)    
Moisture  
Dew Point 64 °F    
Average Humidity 77    
Maximum Humidity 93    
Minimum Humidity 60    
Precipitation  
Precipitation 0.00 in 0.08 in 2.04 in (1956)
Month to date precipitation T 1.07  
Year to date precipitation T 1.07  
Snow  
Snow 0.00 in - - ()
Month to date snowfall 0.0  
Since 1 July snowfall 0.0  
Snow Depth 0.00 in    
Sea Level Pressure  
Sea Level Pressure 29.94 in    
Wind  
Wind Speed 5 mph (WSW)    
Max Wind Speed 13 mph    
Max Gust Speed 16 mph    
Visibility 10 miles    
Events      
T = Trace of Precipitation, MM = Missing Value Source: NWS Daily Summary

Daily Weather History Graph

Daily Weather History Graph

Search for Another Location

Airport or City:

Trip Planner

Search our weather history database for the weather conditions in past years. The results will help you decide how hot, cold, wet, or windy it might be!

Date:

Astronomy

Jan. 12, 2012 Rise Set
Actual Time 7:11 AM HST 6:08 PM HST
Civil Twilight 6:47 AM HST 6:32 PM HST
Nautical Twilight 6:20 AM HST 6:59 PM HST
Astronomical Twilight 5:53 AM HST 7:26 PM HST
Moon 9:49 PM HST (1/12) 9:34 AM HST (1/12)
Length of Visible Light 11h 44m
Length of Day
10h 56m
Waning Gibbous, 85% of the Moon is Illuminated
Jan 12
Waning Gibbous
Jan 15
Last Quarter
Jan 22
New
Jan 30
First Quarter
Feb 7
Full

Hourly Weather History & Observations

Time (HST) Temp. Dew Point Humidity Pressure Visibility Wind Dir Wind Speed Gust Speed Precip Events Conditions
12:53 AM 68.0 °F 64.9 °F 90% 29.98 in 10.0 mi NNW 4.6 mph - N/A   Clear
1:53 AM 68.0 °F 64.0 °F 87% 29.97 in 10.0 mi NNW 3.5 mph - N/A   Partly Cloudy
2:53 AM 66.9 °F 64.0 °F 90% 29.96 in 10.0 mi North 3.5 mph - N/A   Mostly Cloudy
3:53 AM 68.0 °F 64.0 °F 87% 29.95 in 10.0 mi NW 4.6 mph - N/A   Scattered Clouds
4:53 AM 66.9 °F 64.0 °F 90% 29.94 in 10.0 mi NNW 4.6 mph - N/A   Mostly Cloudy
5:53 AM 66.9 °F 63.0 °F 87% 29.95 in 10.0 mi Calm Calm - N/A   Mostly Cloudy
6:53 AM 68.0 °F 62.1 °F 81% 29.96 in 10.0 mi North 3.5 mph - N/A   Scattered Clouds
7:53 AM 69.1 °F 64.0 °F 84% 29.97 in 10.0 mi Variable 6.9 mph - N/A   Mostly Cloudy
8:53 AM 72.0 °F 62.1 °F 71% 29.99 in 10.0 mi Calm Calm - N/A   Mostly Cloudy
9:53 AM 75.0 °F 63.0 °F 66% 29.98 in 10.0 mi Calm Calm - N/A   Mostly Cloudy
10:53 AM 77.0 °F 64.9 °F 66% 29.97 in 10.0 mi South 6.9 mph - N/A   Scattered Clouds
11:53 AM 77.0 °F 63.0 °F 62% 29.93 in 10.0 mi South 8.1 mph - N/A   Scattered Clouds
12:53 PM 77.0 °F 64.9 °F 66% 29.89 in 10.0 mi South 10.4 mph - N/A   Scattered Clouds
1:53 PM 77.0 °F 66.0 °F 69% 29.87 in 10.0 mi SSW 10.4 mph - N/A   Scattered Clouds
2:53 PM 75.9 °F 66.0 °F 71% 29.88 in 10.0 mi SSW 9.2 mph - N/A   Mostly Cloudy
3:53 PM 78.1 °F 64.0 °F 62% 29.89 in 10.0 mi SSW 10.4 mph - N/A   Mostly Cloudy
4:53 PM 77.0 °F 64.0 °F 64% 29.90 in 10.0 mi SW 11.5 mph - N/A   Mostly Cloudy
5:53 PM 73.9 °F 68.0 °F 82% 29.91 in 10.0 mi South 6.9 mph - N/A   Scattered Clouds
6:53 PM 73.9 °F 64.0 °F 71% 29.92 in 10.0 mi SSW 4.6 mph - N/A   Mostly Cloudy
7:53 PM 73.0 °F 64.0 °F 73% 29.93 in 10.0 mi West 5.8 mph - N/A   Scattered Clouds
8:53 PM 72.0 °F 64.0 °F 76% 29.94 in 10.0 mi West 5.8 mph - N/A   Partly Cloudy
9:53 PM 72.0 °F 64.0 °F 76% 29.93 in 10.0 mi WNW 3.5 mph - N/A   Partly Cloudy
10:53 PM 70.0 °F 64.9 °F 84% 29.93 in 10.0 mi Calm Calm - N/A   Partly Cloudy
11:53 PM 66.9 °F 63.0 °F 87% 29.91 in 10.0 mi East 3.5 mph - N/A   Partly Cloudy